﻿_id,日時,10分間移動積算雨量(mm),1時間移動積算雨量(mm),日雨量(mm),累計雨量(mm)
1,2020-07-06T00:00:00,0,0,2,42
2,2020-07-06T00:01:00,0,0,0,42
3,2020-07-06T00:02:00,0,0,0,42
4,2020-07-06T00:03:00,0,0,0,42
5,2020-07-06T00:04:00,0,0,0,42
6,2020-07-06T00:05:00,0,0,0,42
7,2020-07-06T00:06:00,0,0,0,42
8,2020-07-06T00:07:00,0,0,0,42
9,2020-07-06T00:08:00,0,0,0,42
10,2020-07-06T00:09:00,0,0,0,42
11,2020-07-06T00:10:00,0,0,0,42
12,2020-07-06T00:11:00,0,0,0,42
13,2020-07-06T00:12:00,0,0,0,42
14,2020-07-06T00:13:00,0,0,0,42
15,2020-07-06T00:14:00,0,0,0,42
16,2020-07-06T00:15:00,0,0,0,42
17,2020-07-06T00:16:00,0,0,0,42
18,2020-07-06T00:17:00,0,0,0,42
19,2020-07-06T00:18:00,0,0,0,42
20,2020-07-06T00:19:00,0,0,0,42
21,2020-07-06T00:20:00,0,0,0,42
22,2020-07-06T00:21:00,0,0,0,42
23,2020-07-06T00:22:00,0,0,0,42
24,2020-07-06T00:23:00,0,0,0,42
25,2020-07-06T00:24:00,0,0,0,42
26,2020-07-06T00:25:00,0,0,0,42
27,2020-07-06T00:26:00,0,0,0,42
28,2020-07-06T00:27:00,0,0,0,42
29,2020-07-06T00:28:00,0,0,0,42
30,2020-07-06T00:29:00,0,0,0,42
31,2020-07-06T00:30:00,0,0,0,42
32,2020-07-06T00:31:00,0,0,0,42
33,2020-07-06T00:32:00,0,0,0,42
34,2020-07-06T00:33:00,0,0,0,42
35,2020-07-06T00:34:00,0,0,0,42
36,2020-07-06T00:35:00,0,0,0,42
37,2020-07-06T00:36:00,0,0,0,42
38,2020-07-06T00:37:00,0,0,0,42
39,2020-07-06T00:38:00,0,0,0,42
40,2020-07-06T00:39:00,0,0,0,42
41,2020-07-06T00:40:00,0,0,0,42
42,2020-07-06T00:41:00,0,0,0,42
43,2020-07-06T00:42:00,0,0,0,42
44,2020-07-06T00:43:00,0,0,0,42
45,2020-07-06T00:44:00,0,0,0,42
46,2020-07-06T00:45:00,0,0,0,42
47,2020-07-06T00:46:00,0,0,0,42
48,2020-07-06T00:47:00,0,0,0,42
49,2020-07-06T00:48:00,0,0,0,42
50,2020-07-06T00:49:00,0,0,0,42
51,2020-07-06T00:50:00,0,0,0,42
52,2020-07-06T00:51:00,0,0,0,42
53,2020-07-06T00:52:00,0,0,0,42
54,2020-07-06T00:53:00,0,0,0,42
55,2020-07-06T00:54:00,0,0,0,42
56,2020-07-06T00:55:00,0,0,0,42
57,2020-07-06T00:56:00,0,0,0,42
58,2020-07-06T00:57:00,0,0,0,42
59,2020-07-06T00:58:00,0,0,0,42
60,2020-07-06T00:59:00,0,0,0,42
61,2020-07-06T01:00:00,0,0,0,42
62,2020-07-06T01:01:00,0,0,0,42
63,2020-07-06T01:02:00,0,0,0,42
64,2020-07-06T01:03:00,0,0,0,42
65,2020-07-06T01:04:00,0,0,0,42
66,2020-07-06T01:05:00,0,0,0,42
67,2020-07-06T01:06:00,0,0,0,42
68,2020-07-06T01:07:00,0,0,0,42
69,2020-07-06T01:08:00,0,0,0,42
70,2020-07-06T01:09:00,0,0,0,42
71,2020-07-06T01:10:00,0,0,0,42
72,2020-07-06T01:11:00,0,0,0,42
73,2020-07-06T01:12:00,0,0,0,42
74,2020-07-06T01:13:00,0,0,0,42
75,2020-07-06T01:14:00,0,0,0,42
76,2020-07-06T01:15:00,0,0,0,42
77,2020-07-06T01:16:00,0,0,0,42
78,2020-07-06T01:17:00,0,0,0,42
79,2020-07-06T01:18:00,0,0,0,42
80,2020-07-06T01:19:00,0,0,0,42
81,2020-07-06T01:20:00,0,0,0,42
82,2020-07-06T01:21:00,0,0,0,42
83,2020-07-06T01:22:00,0,0,0,42
84,2020-07-06T01:23:00,0,0,0,42
85,2020-07-06T01:24:00,0,0,0,42
86,2020-07-06T01:25:00,0,0,0,42
87,2020-07-06T01:26:00,0,0,0,42
88,2020-07-06T01:27:00,0,0,0,42
89,2020-07-06T01:28:00,0.5,0.5,0.5,42.5
90,2020-07-06T01:29:00,0.5,0.5,0.5,42.5
91,2020-07-06T01:30:00,0.5,0.5,0.5,42.5
92,2020-07-06T01:31:00,0.5,0.5,0.5,42.5
93,2020-07-06T01:32:00,0.5,0.5,0.5,42.5
94,2020-07-06T01:33:00,0.5,0.5,0.5,42.5
95,2020-07-06T01:34:00,0.5,0.5,0.5,42.5
96,2020-07-06T01:35:00,0.5,0.5,0.5,42.5
97,2020-07-06T01:36:00,0.5,0.5,0.5,42.5
98,2020-07-06T01:37:00,1,1,1,43
99,2020-07-06T01:38:00,0.5,1,1,43
100,2020-07-06T01:39:00,0.5,1,1,43
101,2020-07-06T01:40:00,0.5,1,1,43
102,2020-07-06T01:41:00,0.5,1,1,43
103,2020-07-06T01:42:00,0.5,1,1,43
104,2020-07-06T01:43:00,1,1.5,1.5,43.5
105,2020-07-06T01:44:00,1,1.5,1.5,43.5
106,2020-07-06T01:45:00,1,1.5,1.5,43.5
107,2020-07-06T01:46:00,1,1.5,1.5,43.5
108,2020-07-06T01:47:00,0.5,1.5,1.5,43.5
109,2020-07-06T01:48:00,0.5,1.5,1.5,43.5
110,2020-07-06T01:49:00,0.5,1.5,1.5,43.5
111,2020-07-06T01:50:00,0.5,1.5,1.5,43.5
112,2020-07-06T01:51:00,1,2,2,44
113,2020-07-06T01:52:00,1,2,2,44
114,2020-07-06T01:53:00,0.5,2,2,44
115,2020-07-06T01:54:00,0.5,2,2,44
116,2020-07-06T01:55:00,0.5,2,2,44
117,2020-07-06T01:56:00,0.5,2,2,44
118,2020-07-06T01:57:00,0.5,2,2,44
119,2020-07-06T01:58:00,0.5,2,2,44
120,2020-07-06T01:59:00,0.5,2,2,44
121,2020-07-06T02:00:00,0.5,2,2,44
122,2020-07-06T02:01:00,0,2,2,44
123,2020-07-06T02:02:00,0,2,2,44
124,2020-07-06T02:03:00,0,2,2,44
125,2020-07-06T02:04:00,0,2,2,44
126,2020-07-06T02:05:00,0,2,2,44
127,2020-07-06T02:06:00,0,2,2,44
128,2020-07-06T02:07:00,0,2,2,44
129,2020-07-06T02:08:00,0,2,2,44
130,2020-07-06T02:09:00,0,2,2,44
131,2020-07-06T02:10:00,0,2,2,44
132,2020-07-06T02:11:00,0,2,2,44
133,2020-07-06T02:12:00,0,2,2,44
134,2020-07-06T02:13:00,0,2,2,44
135,2020-07-06T02:14:00,0,2,2,44
136,2020-07-06T02:15:00,0,2,2,44
137,2020-07-06T02:16:00,0,2,2,44
138,2020-07-06T02:17:00,0,2,2,44
139,2020-07-06T02:18:00,0,2,2,44
140,2020-07-06T02:19:00,0,2,2,44
141,2020-07-06T02:20:00,0,2,2,44
142,2020-07-06T02:21:00,0,2,2,44
143,2020-07-06T02:22:00,0,2,2,44
144,2020-07-06T02:23:00,0.5,2.5,2.5,44.5
145,2020-07-06T02:24:00,0.5,2.5,2.5,44.5
146,2020-07-06T02:25:00,0.5,2.5,2.5,44.5
147,2020-07-06T02:26:00,0.5,2.5,2.5,44.5
148,2020-07-06T02:27:00,0.5,2.5,2.5,44.5
149,2020-07-06T02:28:00,0.5,2,2.5,44.5
150,2020-07-06T02:29:00,0.5,2,2.5,44.5
151,2020-07-06T02:30:00,0.5,2,2.5,44.5
152,2020-07-06T02:31:00,0.5,2,2.5,44.5
153,2020-07-06T02:32:00,0.5,2,2.5,44.5
154,2020-07-06T02:33:00,0,2,2.5,44.5
155,2020-07-06T02:34:00,0,2,2.5,44.5
156,2020-07-06T02:35:00,0,2,2.5,44.5
157,2020-07-06T02:36:00,0,2,2.5,44.5
158,2020-07-06T02:37:00,0,1.5,2.5,44.5
159,2020-07-06T02:38:00,0,1.5,2.5,44.5
160,2020-07-06T02:39:00,0,1.5,2.5,44.5
161,2020-07-06T02:40:00,0,1.5,2.5,44.5
162,2020-07-06T02:41:00,0,1.5,2.5,44.5
163,2020-07-06T02:42:00,0,1.5,2.5,44.5
164,2020-07-06T02:43:00,0,1,2.5,44.5
165,2020-07-06T02:44:00,0,1,2.5,44.5
166,2020-07-06T02:45:00,0,1,2.5,44.5
167,2020-07-06T02:46:00,0,1,2.5,44.5
168,2020-07-06T02:47:00,0,1,2.5,44.5
169,2020-07-06T02:48:00,0,1,2.5,44.5
170,2020-07-06T02:49:00,0,1,2.5,44.5
171,2020-07-06T02:50:00,0,1,2.5,44.5
172,2020-07-06T02:51:00,0,0.5,2.5,44.5
173,2020-07-06T02:52:00,0,0.5,2.5,44.5
174,2020-07-06T02:53:00,0,0.5,2.5,44.5
175,2020-07-06T02:54:00,0,0.5,2.5,44.5
176,2020-07-06T02:55:00,0,0.5,2.5,44.5
177,2020-07-06T02:56:00,0,0.5,2.5,44.5
178,2020-07-06T02:57:00,0,0.5,2.5,44.5
179,2020-07-06T02:58:00,0,0.5,2.5,44.5
180,2020-07-06T02:59:00,0,0.5,2.5,44.5
181,2020-07-06T03:00:00,0.5,1,3,45
182,2020-07-06T03:01:00,0.5,1,3,45
183,2020-07-06T03:02:00,0.5,1,3,45
184,2020-07-06T03:03:00,0.5,1,3,45
185,2020-07-06T03:04:00,0.5,1,3,45
186,2020-07-06T03:05:00,0.5,1,3,45
187,2020-07-06T03:06:00,1,1.5,3.5,45.5
188,2020-07-06T03:07:00,1,1.5,3.5,45.5
189,2020-07-06T03:08:00,1,1.5,3.5,45.5
190,2020-07-06T03:09:00,1,1.5,3.5,45.5
191,2020-07-06T03:10:00,0.5,1.5,3.5,45.5
192,2020-07-06T03:11:00,0.5,1.5,3.5,45.5
193,2020-07-06T03:12:00,0.5,1.5,3.5,45.5
194,2020-07-06T03:13:00,1,2,4,46
195,2020-07-06T03:14:00,1,2,4,46
196,2020-07-06T03:15:00,1,2,4,46
197,2020-07-06T03:16:00,0.5,2,4,46
198,2020-07-06T03:17:00,0.5,2,4,46
199,2020-07-06T03:18:00,0.5,2,4,46
200,2020-07-06T03:19:00,0.5,2,4,46
201,2020-07-06T03:20:00,0.5,2,4,46
202,2020-07-06T03:21:00,0.5,2,4,46
203,2020-07-06T03:22:00,1,2.5,4.5,46.5
204,2020-07-06T03:23:00,0.5,2,4.5,46.5
205,2020-07-06T03:24:00,0.5,2,4.5,46.5
206,2020-07-06T03:25:00,0.5,2,4.5,46.5
207,2020-07-06T03:26:00,0.5,2,4.5,46.5
208,2020-07-06T03:27:00,0.5,2,4.5,46.5
209,2020-07-06T03:28:00,0.5,2,4.5,46.5
210,2020-07-06T03:29:00,0.5,2,4.5,46.5
211,2020-07-06T03:30:00,0.5,2,4.5,46.5
212,2020-07-06T03:31:00,0.5,2,4.5,46.5
213,2020-07-06T03:32:00,0,2,4.5,46.5
214,2020-07-06T03:33:00,0,2,4.5,46.5
215,2020-07-06T03:34:00,0,2,4.5,46.5
216,2020-07-06T03:35:00,0.5,2.5,5,47
217,2020-07-06T03:36:00,0.5,2.5,5,47
218,2020-07-06T03:37:00,0.5,2.5,5,47
219,2020-07-06T03:38:00,0.5,2.5,5,47
220,2020-07-06T03:39:00,0.5,2.5,5,47
221,2020-07-06T03:40:00,0.5,2.5,5,47
222,2020-07-06T03:41:00,0.5,2.5,5,47
223,2020-07-06T03:42:00,1,3,5.5,47.5
224,2020-07-06T03:43:00,1,3,5.5,47.5
225,2020-07-06T03:44:00,1,3,5.5,47.5
226,2020-07-06T03:45:00,0.5,3,5.5,47.5
227,2020-07-06T03:46:00,0.5,3,5.5,47.5
228,2020-07-06T03:47:00,1,3.5,6,48
229,2020-07-06T03:48:00,1,3.5,6,48
230,2020-07-06T03:49:00,1,3.5,6,48
231,2020-07-06T03:50:00,1,3.5,6,48
232,2020-07-06T03:51:00,1,3.5,6,48
233,2020-07-06T03:52:00,0.5,3.5,6,48
234,2020-07-06T03:53:00,1,4,6.5,48.5
235,2020-07-06T03:54:00,1,4,6.5,48.5
236,2020-07-06T03:55:00,1,4,6.5,48.5
237,2020-07-06T03:56:00,1,4,6.5,48.5
238,2020-07-06T03:57:00,1,4.5,7,49
239,2020-07-06T03:58:00,1,4.5,7,49
240,2020-07-06T03:59:00,1,4.5,7,49
241,2020-07-06T04:00:00,1.5,4.5,7.5,49.5
242,2020-07-06T04:01:00,1.5,4.5,7.5,49.5
243,2020-07-06T04:02:00,1.5,4.5,7.5,49.5
244,2020-07-06T04:03:00,1,4.5,7.5,49.5
245,2020-07-06T04:04:00,1.5,5,8,50
246,2020-07-06T04:05:00,1.5,5,8,50
247,2020-07-06T04:06:00,1.5,4.5,8,50
248,2020-07-06T04:07:00,1,4.5,8,50
249,2020-07-06T04:08:00,1,4.5,8,50
250,2020-07-06T04:09:00,1,4.5,8,50
251,2020-07-06T04:10:00,0.5,4.5,8,50
252,2020-07-06T04:11:00,1,5,8.5,50.5
253,2020-07-06T04:12:00,1,5,8.5,50.5
254,2020-07-06T04:13:00,1,4.5,8.5,50.5
255,2020-07-06T04:14:00,0.5,4.5,8.5,50.5
256,2020-07-06T04:15:00,0.5,4.5,8.5,50.5
257,2020-07-06T04:16:00,0.5,4.5,8.5,50.5
258,2020-07-06T04:17:00,0.5,4.5,8.5,50.5
259,2020-07-06T04:18:00,0.5,4.5,8.5,50.5
260,2020-07-06T04:19:00,0.5,4.5,8.5,50.5
261,2020-07-06T04:20:00,0.5,4.5,8.5,50.5
262,2020-07-06T04:21:00,0,4.5,8.5,50.5
263,2020-07-06T04:22:00,0,4,8.5,50.5
264,2020-07-06T04:23:00,0,4,8.5,50.5
265,2020-07-06T04:24:00,0,4,8.5,50.5
266,2020-07-06T04:25:00,0.5,4.5,9,51
267,2020-07-06T04:26:00,0.5,4.5,9,51
268,2020-07-06T04:27:00,0.5,4.5,9,51
269,2020-07-06T04:28:00,1,5,9.5,51.5
270,2020-07-06T04:29:00,1,5,9.5,51.5
271,2020-07-06T04:30:00,1,5,9.5,51.5
272,2020-07-06T04:31:00,1.5,5.5,10,52
273,2020-07-06T04:32:00,1.5,5.5,10,52
274,2020-07-06T04:33:00,1.5,5.5,10,52
275,2020-07-06T04:34:00,1.5,5.5,10,52
276,2020-07-06T04:35:00,1.5,5.5,10.5,52.5
277,2020-07-06T04:36:00,1.5,5.5,10.5,52.5
278,2020-07-06T04:37:00,1.5,5.5,10.5,52.5
279,2020-07-06T04:38:00,1,5.5,10.5,52.5
280,2020-07-06T04:39:00,1.5,6,11,53
281,2020-07-06T04:40:00,1.5,6,11,53
282,2020-07-06T04:41:00,1,6,11,53
283,2020-07-06T04:42:00,1,5.5,11,53
284,2020-07-06T04:43:00,1,5.5,11,53
285,2020-07-06T04:44:00,1,5.5,11,53
286,2020-07-06T04:45:00,0.5,5.5,11,53
287,2020-07-06T04:46:00,0.5,5.5,11,53
288,2020-07-06T04:47:00,0.5,5,11,53
289,2020-07-06T04:48:00,0.5,5,11,53
290,2020-07-06T04:49:00,0,5,11,53
291,2020-07-06T04:50:00,0.5,5.5,11.5,53.5
292,2020-07-06T04:51:00,0.5,5.5,11.5,53.5
293,2020-07-06T04:52:00,0.5,5.5,11.5,53.5
294,2020-07-06T04:53:00,0.5,5,11.5,53.5
295,2020-07-06T04:54:00,0.5,5,11.5,53.5
296,2020-07-06T04:55:00,0.5,5,11.5,53.5
297,2020-07-06T04:56:00,0.5,5,11.5,53.5
298,2020-07-06T04:57:00,0.5,4.5,11.5,53.5
299,2020-07-06T04:58:00,1,5,12,54
300,2020-07-06T04:59:00,1,5,12,54
301,2020-07-06T05:00:00,0.5,4.5,12,54
302,2020-07-06T05:01:00,0.5,4.5,12,54
303,2020-07-06T05:02:00,0.5,4.5,12,54
304,2020-07-06T05:03:00,0.5,4.5,12,54
305,2020-07-06T05:04:00,0.5,4,12,54
306,2020-07-06T05:05:00,1,4.5,12.5,54.5
307,2020-07-06T05:06:00,1,4.5,12.5,54.5
308,2020-07-06T05:07:00,1,4.5,12.5,54.5
309,2020-07-06T05:08:00,0.5,4.5,12.5,54.5
310,2020-07-06T05:09:00,0.5,4.5,12.5,54.5
311,2020-07-06T05:10:00,0.5,4.5,12.5,54.5
312,2020-07-06T05:11:00,0.5,4,12.5,54.5
313,2020-07-06T05:12:00,0.5,4,12.5,54.5
314,2020-07-06T05:13:00,0.5,4,12.5,54.5
315,2020-07-06T05:14:00,0.5,4,12.5,54.5
316,2020-07-06T05:15:00,0.5,4.5,13,55
317,2020-07-06T05:16:00,0.5,4.5,13,55
318,2020-07-06T05:17:00,0.5,4.5,13,55
319,2020-07-06T05:18:00,0.5,4.5,13,55
320,2020-07-06T05:19:00,0.5,4.5,13,55
321,2020-07-06T05:20:00,0.5,4.5,13,55
322,2020-07-06T05:21:00,0.5,4.5,13,55
323,2020-07-06T05:22:00,0.5,4.5,13,55
324,2020-07-06T05:23:00,0.5,4.5,13,55
325,2020-07-06T05:24:00,0.5,4.5,13,55
326,2020-07-06T05:25:00,0,4,13,55
327,2020-07-06T05:26:00,0,4,13,55
328,2020-07-06T05:27:00,0,4,13,55
329,2020-07-06T05:28:00,0,3.5,13,55
330,2020-07-06T05:29:00,0,3.5,13,55
331,2020-07-06T05:30:00,0.5,4,13.5,55.5
332,2020-07-06T05:31:00,0.5,3.5,13.5,55.5
333,2020-07-06T05:32:00,0.5,3.5,13.5,55.5
334,2020-07-06T05:33:00,0.5,3.5,13.5,55.5
335,2020-07-06T05:34:00,0.5,3.5,13.5,55.5
336,2020-07-06T05:35:00,0.5,3,13.5,55.5
337,2020-07-06T05:36:00,0.5,3,13.5,55.5
338,2020-07-06T05:37:00,0.5,3,13.5,55.5
339,2020-07-06T05:38:00,0.5,3,13.5,55.5
340,2020-07-06T05:39:00,0.5,2.5,13.5,55.5
341,2020-07-06T05:40:00,0,2.5,13.5,55.5
342,2020-07-06T05:41:00,0,2.5,13.5,55.5
343,2020-07-06T05:42:00,0,2.5,13.5,55.5
344,2020-07-06T05:43:00,0,2.5,13.5,55.5
345,2020-07-06T05:44:00,0,2.5,13.5,55.5
346,2020-07-06T05:45:00,0,2.5,13.5,55.5
347,2020-07-06T05:46:00,0,2.5,13.5,55.5
348,2020-07-06T05:47:00,0,2.5,13.5,55.5
349,2020-07-06T05:48:00,0,2.5,13.5,55.5
350,2020-07-06T05:49:00,0,2.5,13.5,55.5
351,2020-07-06T05:50:00,0,2,13.5,55.5
352,2020-07-06T05:51:00,0,2,13.5,55.5
353,2020-07-06T05:52:00,0,2,13.5,55.5
354,2020-07-06T05:53:00,0,2,13.5,55.5
355,2020-07-06T05:54:00,0,2,13.5,55.5
356,2020-07-06T05:55:00,0,2,13.5,55.5
357,2020-07-06T05:56:00,0,2,13.5,55.5
358,2020-07-06T05:57:00,0,2,13.5,55.5
359,2020-07-06T05:58:00,0,1.5,13.5,55.5
360,2020-07-06T05:59:00,0,1.5,13.5,55.5
361,2020-07-06T06:00:00,0.5,2,14,56
362,2020-07-06T06:01:00,0.5,2,14,56
363,2020-07-06T06:02:00,0.5,2,14,56
364,2020-07-06T06:03:00,0.5,2,14,56
365,2020-07-06T06:04:00,0.5,2,14,56
366,2020-07-06T06:05:00,0.5,1.5,14,56
367,2020-07-06T06:06:00,0.5,1.5,14,56
368,2020-07-06T06:07:00,0.5,1.5,14,56
369,2020-07-06T06:08:00,0.5,1.5,14,56
370,2020-07-06T06:09:00,0.5,1.5,14,56
371,2020-07-06T06:10:00,0,1.5,14,56
372,2020-07-06T06:11:00,0,1.5,14,56
373,2020-07-06T06:12:00,0,1.5,14,56
374,2020-07-06T06:13:00,0,1.5,14,56
375,2020-07-06T06:14:00,0,1.5,14,56
376,2020-07-06T06:15:00,0.5,1.5,14.5,56.5
377,2020-07-06T06:16:00,0.5,1.5,14.5,56.5
378,2020-07-06T06:17:00,0.5,1.5,14.5,56.5
379,2020-07-06T06:18:00,0.5,1.5,14.5,56.5
380,2020-07-06T06:19:00,0.5,1.5,14.5,56.5
381,2020-07-06T06:20:00,0.5,1.5,14.5,56.5
382,2020-07-06T06:21:00,0.5,1.5,14.5,56.5
383,2020-07-06T06:22:00,0.5,1.5,14.5,56.5
384,2020-07-06T06:23:00,0.5,1.5,14.5,56.5
385,2020-07-06T06:24:00,0.5,1.5,14.5,56.5
386,2020-07-06T06:25:00,0,1.5,14.5,56.5
387,2020-07-06T06:26:00,0,1.5,14.5,56.5
388,2020-07-06T06:27:00,0,1.5,14.5,56.5
389,2020-07-06T06:28:00,0,1.5,14.5,56.5
390,2020-07-06T06:29:00,0,1.5,14.5,56.5
391,2020-07-06T06:30:00,0,1,14.5,56.5
392,2020-07-06T06:31:00,0,1,14.5,56.5
393,2020-07-06T06:32:00,0,1,14.5,56.5
394,2020-07-06T06:33:00,0.5,1.5,15,57
395,2020-07-06T06:34:00,0.5,1.5,15,57
396,2020-07-06T06:35:00,0.5,1.5,15,57
397,2020-07-06T06:36:00,0.5,1.5,15,57
398,2020-07-06T06:37:00,0.5,1.5,15,57
399,2020-07-06T06:38:00,0.5,1.5,15,57
400,2020-07-06T06:39:00,0.5,1.5,15,57
401,2020-07-06T06:40:00,0.5,1.5,15,57
402,2020-07-06T06:41:00,0.5,1.5,15,57
403,2020-07-06T06:42:00,0.5,1.5,15,57
404,2020-07-06T06:43:00,0,1.5,15,57
405,2020-07-06T06:44:00,0,1.5,15,57
406,2020-07-06T06:45:00,0,1.5,15,57
407,2020-07-06T06:46:00,0,1.5,15,57
408,2020-07-06T06:47:00,0,1.5,15,57
409,2020-07-06T06:48:00,0,1.5,15,57
410,2020-07-06T06:49:00,0,1.5,15,57
411,2020-07-06T06:50:00,0,1.5,15,57
412,2020-07-06T06:51:00,0,1.5,15,57
413,2020-07-06T06:52:00,0,1.5,15,57
414,2020-07-06T06:53:00,0,1.5,15,57
415,2020-07-06T06:54:00,0,1.5,15,57
416,2020-07-06T06:55:00,0,1.5,15,57
417,2020-07-06T06:56:00,0,1.5,15,57
418,2020-07-06T06:57:00,0,1.5,15,57
419,2020-07-06T06:58:00,0,1.5,15,57
420,2020-07-06T06:59:00,0,1.5,15,57
421,2020-07-06T07:00:00,0,1,15,57
422,2020-07-06T07:01:00,0,1,15,57
423,2020-07-06T07:02:00,0,1,15,57
424,2020-07-06T07:03:00,0,1,15,57
425,2020-07-06T07:04:00,0,1,15,57
426,2020-07-06T07:05:00,0,1,15,57
427,2020-07-06T07:06:00,0,1,15,57
428,2020-07-06T07:07:00,0,1,15,57
429,2020-07-06T07:08:00,0,1,15,57
430,2020-07-06T07:09:00,0,1,15,57
431,2020-07-06T07:10:00,0,1,15,57
432,2020-07-06T07:11:00,0,1,15,57
433,2020-07-06T07:12:00,0,1,15,57
434,2020-07-06T07:13:00,0,1,15,57
435,2020-07-06T07:14:00,0,1,15,57
436,2020-07-06T07:15:00,0,0.5,15,57
437,2020-07-06T07:16:00,0,0.5,15,57
438,2020-07-06T07:17:00,0,0.5,15,57
439,2020-07-06T07:18:00,0,0.5,15,57
440,2020-07-06T07:19:00,0,0.5,15,57
441,2020-07-06T07:20:00,0,0.5,15,57
442,2020-07-06T07:21:00,0,0.5,15,57
443,2020-07-06T07:22:00,0,0.5,15,57
444,2020-07-06T07:23:00,0,0.5,15,57
445,2020-07-06T07:24:00,0,0.5,15,57
446,2020-07-06T07:25:00,0,0.5,15,57
447,2020-07-06T07:26:00,0,0.5,15,57
448,2020-07-06T07:27:00,0,0.5,15,57
449,2020-07-06T07:28:00,0,0.5,15,57
450,2020-07-06T07:29:00,0,0.5,15,57
451,2020-07-06T07:30:00,0,0.5,15,57
452,2020-07-06T07:31:00,0,0.5,15,57
453,2020-07-06T07:32:00,0,0.5,15,57
454,2020-07-06T07:33:00,0,0,15,57
455,2020-07-06T07:34:00,0,0,15,57
456,2020-07-06T07:35:00,0,0,15,57
457,2020-07-06T07:36:00,0,0,15,57
458,2020-07-06T07:37:00,0,0,15,57
459,2020-07-06T07:38:00,0,0,15,57
460,2020-07-06T07:39:00,0,0,15,57
461,2020-07-06T07:40:00,0,0,15,57
462,2020-07-06T07:41:00,0,0,15,57
463,2020-07-06T07:42:00,0,0,15,57
464,2020-07-06T07:43:00,0,0,15,57
465,2020-07-06T07:44:00,0,0,15,57
466,2020-07-06T07:45:00,0,0,15,57
467,2020-07-06T07:46:00,0,0,15,57
468,2020-07-06T07:47:00,0,0,15,57
469,2020-07-06T07:48:00,0,0,15,57
470,2020-07-06T07:49:00,0,0,15,57
471,2020-07-06T07:50:00,0,0,15,57
472,2020-07-06T07:51:00,0,0,15,57
473,2020-07-06T07:52:00,0,0,15,57
474,2020-07-06T07:53:00,0,0,15,57
475,2020-07-06T07:54:00,0,0,15,57
476,2020-07-06T07:55:00,0,0,15,57
477,2020-07-06T07:56:00,0,0,15,57
478,2020-07-06T07:57:00,0,0,15,57
479,2020-07-06T07:58:00,0,0,15,57
480,2020-07-06T07:59:00,0,0,15,57
481,2020-07-06T08:00:00,0,0,15,57
482,2020-07-06T08:01:00,0,0,15,57
483,2020-07-06T08:02:00,0,0,15,57
484,2020-07-06T08:03:00,0,0,15,57
485,2020-07-06T08:04:00,0,0,15,57
486,2020-07-06T08:05:00,0,0,15,57
487,2020-07-06T08:06:00,0,0,15,57
488,2020-07-06T08:07:00,0,0,15,57
489,2020-07-06T08:08:00,0,0,15,57
490,2020-07-06T08:09:00,0,0,15,57
491,2020-07-06T08:10:00,0,0,15,57
492,2020-07-06T08:11:00,0,0,15,57
493,2020-07-06T08:12:00,0,0,15,57
494,2020-07-06T08:13:00,0,0,15,57
495,2020-07-06T08:14:00,0,0,15,57
496,2020-07-06T08:15:00,0,0,15,57
497,2020-07-06T08:16:00,0,0,15,57
498,2020-07-06T08:17:00,0,0,15,57
499,2020-07-06T08:18:00,0,0,15,57
500,2020-07-06T08:19:00,0,0,15,57
501,2020-07-06T08:20:00,0,0,15,57
502,2020-07-06T08:21:00,0,0,15,57
503,2020-07-06T08:22:00,0,0,15,57
504,2020-07-06T08:23:00,0,0,15,57
505,2020-07-06T08:24:00,0,0,15,57
506,2020-07-06T08:25:00,0,0,15,57
507,2020-07-06T08:26:00,0,0,15,57
508,2020-07-06T08:27:00,0,0,15,57
509,2020-07-06T08:28:00,0,0,15,57
510,2020-07-06T08:29:00,0,0,15,57
511,2020-07-06T08:30:00,0,0,15,57
512,2020-07-06T08:31:00,0,0,15,57
513,2020-07-06T08:32:00,0,0,15,57
514,2020-07-06T08:33:00,0,0,15,57
515,2020-07-06T08:34:00,0,0,15,57
516,2020-07-06T08:35:00,0,0,15,57
517,2020-07-06T08:36:00,0,0,15,57
518,2020-07-06T08:37:00,0,0,15,57
519,2020-07-06T08:38:00,0,0,15,57
520,2020-07-06T08:39:00,0,0,15,57
521,2020-07-06T08:40:00,0,0,15,57
522,2020-07-06T08:41:00,0,0,15,57
523,2020-07-06T08:42:00,0,0,15,57
524,2020-07-06T08:43:00,0,0,15,57
525,2020-07-06T08:44:00,0,0,15,57
526,2020-07-06T08:45:00,0,0,15,57
527,2020-07-06T08:46:00,0,0,15,57
528,2020-07-06T08:47:00,0,0,15,57
529,2020-07-06T08:48:00,0,0,15,57
530,2020-07-06T08:49:00,0,0,15,57
531,2020-07-06T08:50:00,0,0,15,57
532,2020-07-06T08:51:00,0,0,15,57
533,2020-07-06T08:52:00,0,0,15,57
534,2020-07-06T08:53:00,0,0,15,57
535,2020-07-06T08:54:00,0,0,15,57
536,2020-07-06T08:55:00,0,0,15,57
537,2020-07-06T08:56:00,0,0,15,57
538,2020-07-06T08:57:00,0,0,15,57
539,2020-07-06T08:58:00,0,0,15,57
540,2020-07-06T08:59:00,0,0,15,57
541,2020-07-06T09:00:00,0,0,15,57
542,2020-07-06T09:01:00,0,0,15,57
543,2020-07-06T09:02:00,0,0,15,57
544,2020-07-06T09:03:00,0,0,15,57
545,2020-07-06T09:04:00,0,0,15,57
546,2020-07-06T09:05:00,0,0,15,57
547,2020-07-06T09:06:00,0,0,15,57
548,2020-07-06T09:07:00,0,0,15,57
549,2020-07-06T09:08:00,0,0,15,57
550,2020-07-06T09:09:00,0,0,15,57
551,2020-07-06T09:10:00,0,0,15,57
552,2020-07-06T09:11:00,0,0,15,57
553,2020-07-06T09:12:00,0,0,15,57
554,2020-07-06T09:13:00,0,0,15,57
555,2020-07-06T09:14:00,0,0,15,57
556,2020-07-06T09:15:00,0,0,15,57
557,2020-07-06T09:16:00,0,0,15,57
558,2020-07-06T09:17:00,0,0,15,57
559,2020-07-06T09:18:00,0,0,15,57
560,2020-07-06T09:19:00,0,0,15,57
561,2020-07-06T09:20:00,0,0,15,57
562,2020-07-06T09:21:00,0,0,15,57
563,2020-07-06T09:22:00,0,0,15,57
564,2020-07-06T09:23:00,0,0,15,57
565,2020-07-06T09:24:00,0,0,15,57
566,2020-07-06T09:25:00,0,0,15,57
567,2020-07-06T09:26:00,0,0,15,57
568,2020-07-06T09:27:00,0,0,15,57
569,2020-07-06T09:28:00,0,0,15,57
570,2020-07-06T09:29:00,0,0,15,57
571,2020-07-06T09:30:00,0,0,15,57
572,2020-07-06T09:31:00,0,0,15,57
573,2020-07-06T09:32:00,0,0,15,57
574,2020-07-06T09:33:00,0,0,15,57
575,2020-07-06T09:34:00,0,0,15,57
576,2020-07-06T09:35:00,0,0,15,57
577,2020-07-06T09:36:00,0,0,15,57
578,2020-07-06T09:37:00,0,0,15,57
579,2020-07-06T09:38:00,0,0,15,57
580,2020-07-06T09:39:00,0,0,15,57
581,2020-07-06T09:40:00,0,0,15,57
582,2020-07-06T09:41:00,0,0,15,57
583,2020-07-06T09:42:00,0,0,15,57
584,2020-07-06T09:43:00,0,0,15,57
585,2020-07-06T09:44:00,0,0,15,57
586,2020-07-06T09:45:00,0,0,15,57
587,2020-07-06T09:46:00,0,0,15,57
588,2020-07-06T09:47:00,0,0,15,57
589,2020-07-06T09:48:00,0,0,15,57
590,2020-07-06T09:49:00,0,0,15,57
591,2020-07-06T09:50:00,0,0,15,57
592,2020-07-06T09:51:00,0,0,15,57
593,2020-07-06T09:52:00,0,0,15,57
594,2020-07-06T09:53:00,0,0,15,57
595,2020-07-06T09:54:00,0,0,15,57
596,2020-07-06T09:55:00,0,0,15,57
597,2020-07-06T09:56:00,0,0,15,57
598,2020-07-06T09:57:00,0,0,15,57
599,2020-07-06T09:58:00,0,0,15,57
600,2020-07-06T09:59:00,0,0,15,57
601,2020-07-06T10:00:00,0,0,15,57
602,2020-07-06T10:01:00,0,0,15,57
603,2020-07-06T10:02:00,0,0,15,57
604,2020-07-06T10:03:00,0,0,15,57
605,2020-07-06T10:04:00,0,0,15,57
606,2020-07-06T10:05:00,0,0,15,57
607,2020-07-06T10:06:00,0,0,15,57
608,2020-07-06T10:07:00,0,0,15,57
609,2020-07-06T10:08:00,0,0,15,57
610,2020-07-06T10:09:00,0,0,15,57
611,2020-07-06T10:10:00,0,0,15,57
612,2020-07-06T10:11:00,0,0,15,57
613,2020-07-06T10:12:00,0,0,15,57
614,2020-07-06T10:13:00,0.5,0.5,15.5,57.5
615,2020-07-06T10:14:00,0.5,0.5,15.5,57.5
616,2020-07-06T10:15:00,0.5,0.5,15.5,57.5
617,2020-07-06T10:16:00,0.5,0.5,15.5,57.5
618,2020-07-06T10:17:00,0.5,0.5,15.5,57.5
619,2020-07-06T10:18:00,1,1,16,58
620,2020-07-06T10:19:00,1,1,16,58
621,2020-07-06T10:20:00,1,1,16,58
622,2020-07-06T10:21:00,1,1,16,58
623,2020-07-06T10:22:00,1,1,16,58
624,2020-07-06T10:23:00,0.5,1,16,58
625,2020-07-06T10:24:00,0.5,1,16,58
626,2020-07-06T10:25:00,0.5,1,16,58
627,2020-07-06T10:26:00,0.5,1,16,58
628,2020-07-06T10:27:00,0.5,1,16,58
629,2020-07-06T10:28:00,0,1,16,58
630,2020-07-06T10:29:00,0.5,1.5,16.5,58.5
631,2020-07-06T10:30:00,0.5,1.5,16.5,58.5
632,2020-07-06T10:31:00,0.5,1.5,16.5,58.5
633,2020-07-06T10:32:00,0.5,1.5,16.5,58.5
634,2020-07-06T10:33:00,0.5,1.5,16.5,58.5
635,2020-07-06T10:34:00,0.5,1.5,16.5,58.5
636,2020-07-06T10:35:00,0.5,1.5,16.5,58.5
637,2020-07-06T10:36:00,0.5,1.5,16.5,58.5
638,2020-07-06T10:37:00,0.5,1.5,16.5,58.5
639,2020-07-06T10:38:00,0.5,1.5,16.5,58.5
640,2020-07-06T10:39:00,0,1.5,16.5,58.5
641,2020-07-06T10:40:00,0,1.5,16.5,58.5
642,2020-07-06T10:41:00,0,1.5,16.5,58.5
643,2020-07-06T10:42:00,0,1.5,16.5,58.5
644,2020-07-06T10:43:00,0,1.5,16.5,58.5
645,2020-07-06T10:44:00,0,1.5,16.5,58.5
646,2020-07-06T10:45:00,0,1.5,16.5,58.5
647,2020-07-06T10:46:00,0,1.5,16.5,58.5
648,2020-07-06T10:47:00,0,1.5,16.5,58.5
649,2020-07-06T10:48:00,0,1.5,16.5,58.5
650,2020-07-06T10:49:00,0,1.5,16.5,58.5
651,2020-07-06T10:50:00,0,1.5,16.5,58.5
652,2020-07-06T10:51:00,0,1.5,16.5,58.5
653,2020-07-06T10:52:00,0,1.5,16.5,58.5
654,2020-07-06T10:53:00,0.5,2,17,59
655,2020-07-06T10:54:00,0.5,2,17,59
656,2020-07-06T10:55:00,0.5,2,17,59
657,2020-07-06T10:56:00,0.5,2,17,59
658,2020-07-06T10:57:00,0.5,2,17,59
659,2020-07-06T10:58:00,0.5,2,17,59
660,2020-07-06T10:59:00,0.5,2,17,59
661,2020-07-06T11:00:00,0.5,2,17,59
662,2020-07-06T11:01:00,0.5,2,17,59
663,2020-07-06T11:02:00,0.5,2,17,59
664,2020-07-06T11:03:00,0,2,17,59
665,2020-07-06T11:04:00,0,2,17,59